Montreal Mirabel, Ontario

8:49 AM EDT on March 30, 2017 (GMT -0400)
Montreal International (Mirabel)

Weather History for CYMX - September, 2012

Change the Weather History Date:

Friday, September 7, 2012

  Actual Average Record
Temperature  
Mean Temperature 64 °F -  
Max Temperature 75 °F 70 °F 87 °F (2007)
Min Temperature 53 °F 52 °F 44 °F (2000)
Degree Days  
Heating Degree Days 1    
Growing Degree Days 14 (Base 50)    
Moisture  
Dew Point 58 °F    
Average Humidity 82    
Maximum Humidity 100    
Minimum Humidity 53    
Precipitation  
Precipitation 0.00 in - - ()
Sea Level Pressure  
Sea Level Pressure 29.88 in    
Wind  
Wind Speed 3 mph ()    
Max Wind Speed 9 mph    
Max Gust Speed -    
Visibility 18.3 miles    
Events      
Averages and records for this station are not official NWS values.
T = Trace of Precipitation, MM = Missing Value Source: Averaged Metar Reports

Daily Weather History Graph

Daily Weather History Graph

Search for Another Location

Airport or City:

Trip Planner

Search our weather history database for the weather conditions in past years. The results will help you decide how hot, cold, wet, or windy it might be!

Date:

Astronomy

Sep. 07, 2012 Rise Set
Actual Time 6:25 AM EDT 7:21 PM EDT
Civil Twilight 5:54 AM EDT 7:52 PM EDT
Nautical Twilight 5:18 AM EDT 8:28 PM EDT
Astronomical Twilight 4:40 AM EDT 9:05 PM EDT
Moon 10:53 PM EDT (9/7) 1:37 PM EDT (9/7)
Length of Visible Light 13h 57m
Length of Day
12h 56m
Waning Gibbous, 58% of the Moon is Illuminated
Sep 7
Waning Gibbous
Sep 8
Last Quarter
Sep 15
New
Sep 22
First Quarter
Sep 29
Full

Hourly Weather History & Observations

Time (EDT) Temp. Dew Point Humidity Pressure Visibility Wind Dir Wind Speed Gust Speed Precip Events Conditions
12:00 AM 57.2 °F 57.2 °F 100% 29.85 in 25.0 mi Calm Calm - N/A   Partly Cloudy
1:00 AM 57.2 °F 57.2 °F 100% 29.86 in 25.0 mi SSW 2.3 mph - N/A   Partly Cloudy
2:00 AM 57.2 °F 55.4 °F 94% 29.87 in 25.0 mi WSW 3.5 mph - N/A   Partly Cloudy
3:00 AM 55.4 °F 55.4 °F 100% 29.87 in 25.0 mi West 3.5 mph - N/A   Partly Cloudy
4:00 AM 57.2 °F 55.4 °F 94% 29.87 in 25.0 mi West 3.5 mph - N/A   Partly Cloudy
5:00 AM 53.6 °F 53.6 °F 100% 29.87 in 25.0 mi West 2.3 mph - N/A   Partly Cloudy
6:00 AM 53.6 °F 51.8 °F 94% 29.88 in 25.0 mi West 2.3 mph - N/A   Partly Cloudy
7:00 AM 53.6 °F 53.6 °F 100% 29.90 in 40.0 mi SW 2.3 mph - N/A   Scattered Clouds
8:00 AM 59.0 °F 59.0 °F 100% 29.91 in 15.0 mi WSW 5.8 mph - N/A   Mostly Cloudy
9:00 AM 64.4 °F 57.2 °F 77% 29.90 in 20.0 mi SW 4.6 mph - N/A   Overcast
10:00 AM 66.2 °F 59.0 °F 78% 29.90 in 25.0 mi SSW 5.8 mph - N/A   Overcast
11:00 AM 68.0 °F 60.8 °F 78% 29.91 in 35.0 mi SSW 8.1 mph - N/A   Overcast
12:00 PM 69.8 °F 60.8 °F 73% 29.92 in 40.0 mi SW 5.8 mph - N/A   Mostly Cloudy
1:00 PM 71.6 °F 60.8 °F 69% 29.91 in 40.0 mi SSW 6.9 mph - N/A   Overcast
2:00 PM 73.4 °F 60.8 °F 65% 29.91 in 45.0 mi SSW 9.2 mph - N/A   Overcast
3:00 PM 75.2 °F 57.2 °F 53% 29.90 in 45.0 mi WSW 5.8 mph - N/A   Mostly Cloudy
4:00 PM 75.2 °F 57.2 °F 53% 29.89 in 45.0 mi SW 5.8 mph - N/A   Mostly Cloudy
5:00 PM 73.4 °F 57.2 °F 57% 29.88 in 45.0 mi SSW 6.9 mph - N/A   Mostly Cloudy
6:00 PM 71.6 °F 60.8 °F 69% 29.86 in 45.0 mi Calm Calm - N/A   Overcast
7:00 PM 66.2 °F 59.0 °F 78% 29.86 in 45.0 mi ESE 2.3 mph - N/A   Overcast
8:00 PM 64.4 °F 59.0 °F 83% 29.86 in 25.0 mi Calm Calm - N/A   Overcast
9:00 PM 64.4 °F 59.0 °F 83% 29.85 in 20.0 mi ENE 2.3 mph - N/A   Overcast
10:00 PM 62.6 °F 59.0 °F 88% 29.82 in 25.0 mi ENE 2.3 mph - N/A   Overcast
11:00 PM 66.2 °F 59.0 °F 78% 29.81 in 25.0 mi NE 3.5 mph - N/A   Mostly Cloudy